7 * 24
多渠道服务支持
STARLINK-32901 是 SpaceX Starlink 卫星互联网项目中的一颗低轨卫星,属于 Starlink 群体部署的一部分。该卫星由 SpaceX 制造并发射,旨在为全球用户提供高速、低延迟的宽带互联网服务。它运行在约 550 公里的近地轨道上,采用先进通信技术,支持全球范围内的网络连接,尤其服务于传统网络难以覆盖的偏远地区。STARLINK-32901 的部署有助于提升 Starlink 网络的覆盖密度和稳定性。
美国
(US)
| 数据来源 | 国际轨道数据 |
| 星历时间: | 2025-11-07T00:11:23+0800 1天前 查看轨道信息 |
| 半长轴: | 6861.018km |
| 偏心率: | 0.0002828 |
| 轨道倾角: | 42.998° |
| 近地点辐角 | 274.704° |
| 升交点赤经 | 299.973° |
| 平近点角 | 85.349° |
| 近地点: | 480.942km |
| 远地点: | 484.824km |
| 周期: | 94.263分钟 |
| 每日圈数: | 15.276363 |